Time,TemperatureF,DewpointF,PressureIn,WindDirection,WindDirectionDegrees,WindSpeedMPH,WindSpeedGustMPH,Humidity,HourlyPrecipIn,Conditions,Clouds,dailyrainin,SoftwareType,DateUTC
2013-03-15 00:01:00,42.0,35.0,-100.00,SSE,168,2.0,4.0,77,0.00,,,-99.99,,2013-03-15 06:01:00,
2013-03-15 00:12:00,42.0,35.0,-100.00,SSE,168,2.0,4.0,77,0.00,,,-99.99,,2013-03-15 06:12:00,
2013-03-15 00:22:00,42.0,35.0,-100.00,South,169,1.0,2.0,77,0.00,,,-99.99,,2013-03-15 06:22:00,
2013-03-15 00:32:00,42.0,35.0,-100.00,South,169,1.0,2.0,77,0.00,,,-99.99,,2013-03-15 06:32:00,
2013-03-15 00:42:00,42.0,35.0,-100.00,SSE,162,3.0,4.0,77,0.00,,,-99.99,,2013-03-15 06:42:00,
2013-03-15 00:53:00,42.0,35.0,-100.00,WSW,250,1.0,2.0,75,0.00,,,-99.99,,2013-03-15 06:53:00,
2013-03-15 01:12:00,42.0,35.0,-100.00,SSE,164,3.0,4.0,75,0.00,,,-99.99,,2013-03-15 07:12:00,
2013-03-15 01:22:00,43.0,35.0,-100.00,SSE,162,2.0,3.0,74,0.00,,,-99.99,,2013-03-15 07:22:00,
2013-03-15 01:32:00,43.0,35.0,-100.00,SSE,162,2.0,3.0,74,0.00,,,-99.99,,2013-03-15 07:32:00,
2013-03-15 01:42:00,43.0,35.0,-100.00,South,178,2.0,4.0,76,0.00,,,-99.99,,2013-03-15 07:42:00,
2013-03-15 01:52:00,42.0,35.0,-100.00,South,181,1.0,3.0,75,0.00,,,-99.99,,2013-03-15 07:52:00,
2013-03-15 02:02:00,42.0,35.0,-100.00,South,181,1.0,3.0,75,0.00,,,-99.99,,2013-03-15 08:02:00,
2013-03-15 02:12:00,43.0,35.0,-100.00,SSW,200,0.0,2.0,73,0.00,,,-99.99,,2013-03-15 08:12:00,
2013-03-15 02:22:00,43.0,35.0,-100.00,SSE,157,1.0,3.0,74,0.00,,,-99.99,,2013-03-15 08:22:00,
2013-03-15 02:32:00,43.0,35.0,-100.00,SSE,157,1.0,3.0,74,0.00,,,-99.99,,2013-03-15 08:32:00,
2013-03-15 02:42:00,43.0,35.0,-100.00,SW,219,1.0,1.0,72,0.00,,,-99.99,,2013-03-15 08:42:00,
2013-03-15 02:52:00,42.0,35.0,-100.00,SSE,164,2.0,2.0,76,0.00,,,-99.99,,2013-03-15 08:52:00,
2013-03-15 03:01:00,42.0,35.0,-100.00,SSE,164,2.0,2.0,76,0.00,,,-99.99,,2013-03-15 09:01:00,
2013-03-15 03:11:00,42.0,35.0,-100.00,SSW,195,1.0,3.0,77,0.00,,,-99.99,,2013-03-15 09:11:00,
2013-03-15 03:21:00,41.0,35.0,-100.00,South,181,2.0,5.0,78,0.00,,,-99.99,,2013-03-15 09:21:00,
2013-03-15 03:33:00,41.0,35.0,-100.00,South,181,2.0,5.0,78,0.00,,,-99.99,,2013-03-15 09:33:00,
2013-03-15 03:42:00,42.0,35.0,-100.00,SSW,199,0.0,1.0,76,0.00,,,-99.99,,2013-03-15 09:42:00,
2013-03-15 03:53:00,42.0,35.0,-100.00,SW,234,1.0,2.0,74,0.00,,,-99.99,,2013-03-15 09:53:00,
2013-03-15 04:02:00,42.0,35.0,-100.00,SW,234,1.0,2.0,74,0.00,,,-99.99,,2013-03-15 10:02:00,
2013-03-15 04:12:00,42.0,35.0,-100.00,SW,229,1.0,2.0,75,0.00,,,-99.99,,2013-03-15 10:12:00,
2013-03-15 04:23:00,42.0,35.0,-100.00,SSW,209,1.0,2.0,75,0.00,,,-99.99,,2013-03-15 10:23:00,
2013-03-15 04:32:00,42.0,35.0,-100.00,SSW,209,1.0,2.0,75,0.00,,,-99.99,,2013-03-15 10:32:00,
2013-03-15 04:42:00,43.0,35.0,-100.00,SSE,162,2.0,3.0,73,0.00,,,-99.99,,2013-03-15 10:42:00,
2013-03-15 04:52:00,42.0,34.0,-100.00,WSW,250,0.0,1.0,74,0.00,,,-99.99,,2013-03-15 10:52:00,
2013-03-15 05:02:00,42.0,34.0,-100.00,WSW,250,0.0,1.0,74,0.00,,,-99.99,,2013-03-15 11:02:00,
2013-03-15 05:12:00,42.0,35.0,-100.00,SSE,155,2.0,3.0,74,0.00,,,-99.99,,2013-03-15 11:12:00,
2013-03-15 05:22:00,42.0,34.0,-100.00,SW,217,0.0,1.0,75,0.00,,,-99.99,,2013-03-15 11:22:00,
2013-03-15 05:32:00,42.0,34.0,-100.00,SW,217,0.0,1.0,75,0.00,,,-99.99,,2013-03-15 11:32:00,
2013-03-15 05:42:00,41.0,35.0,-100.00,ESE,113,3.0,4.0,76,0.00,,,-99.99,,2013-03-15 11:42:00,
2013-03-15 05:52:00,41.0,34.0,-100.00,West,280,2.0,4.0,76,0.00,,,-99.99,,2013-03-15 11:52:00,
2013-03-15 06:01:00,41.0,34.0,-100.00,West,280,2.0,4.0,76,0.00,,,-99.99,,2013-03-15 12:01:00,
2013-03-15 06:12:00,41.0,34.0,-100.00,SSE,155,2.0,4.0,78,0.00,,,-99.99,,2013-03-15 12:12:00,
2013-03-15 06:22:00,40.0,34.0,-100.00,South,179,2.0,4.0,79,0.00,,,-99.99,,2013-03-15 12:22:00,
2013-03-15 06:32:00,40.0,34.0,-100.00,South,179,2.0,4.0,79,0.00,,,-99.99,,2013-03-15 12:32:00,
2013-03-15 06:42:00,40.0,34.0,-100.00,South,174,1.0,4.0,79,0.00,,,-99.99,,2013-03-15 12:42:00,
2013-03-15 06:52:00,41.0,34.0,-100.00,SE,130,2.0,3.0,78,0.00,,,-99.99,,2013-03-15 12:52:00,
2013-03-15 07:02:00,41.0,34.0,-100.00,SE,130,2.0,3.0,78,0.00,,,-99.99,,2013-03-15 13:02:00,
2013-03-15 07:12:00,41.0,34.0,-100.00,SSE,168,2.0,4.0,78,0.00,,,-99.99,,2013-03-15 13:12:00,
2013-03-15 07:22:00,41.0,34.0,-100.00,South,171,0.0,1.0,77,0.00,,,-99.99,,2013-03-15 13:22:00,
2013-03-15 07:32:00,41.0,34.0,-100.00,South,171,0.0,1.0,77,0.00,,,-99.99,,2013-03-15 13:32:00,
2013-03-15 07:42:00,40.0,34.0,-100.00,South,169,1.0,2.0,80,0.00,,,-99.99,,2013-03-15 13:42:00,
2013-03-15 07:52:00,39.0,34.0,-100.00,SSE,160,1.0,2.0,81,0.00,,,-99.99,,2013-03-15 13:52:00,
2013-03-15 08:02:00,39.0,34.0,-100.00,SSE,160,1.0,2.0,81,0.00,,,-99.99,,2013-03-15 14:02:00,
2013-03-15 08:11:00,38.0,34.0,-100.00,SSE,165,1.0,2.0,83,0.00,,,-99.99,,2013-03-15 14:11:00,
2013-03-15 08:22:00,38.0,34.0,-100.00,SW,233,0.0,1.0,83,0.00,,,-99.99,,2013-03-15 14:22:00,
2013-03-15 08:32:00,38.0,34.0,-100.00,SW,233,0.0,1.0,83,0.00,,,-99.99,,2013-03-15 14:32:00,
2013-03-15 08:42:00,38.0,33.0,-100.00,NW,313,0.0,1.0,84,0.00,,,-99.99,,2013-03-15 14:42:00,
2013-03-15 08:52:00,38.0,33.0,-100.00,ESE,113,1.0,3.0,84,0.00,,,-99.99,,2013-03-15 14:52:00,
2013-03-15 09:02:00,38.0,33.0,-100.00,ESE,113,1.0,3.0,84,0.00,,,-99.99,,2013-03-15 15:02:00,
2013-03-15 09:12:00,38.0,33.0,-100.00,WNW,291,0.0,0.0,83,0.00,,,-99.99,,2013-03-15 15:12:00,
2013-03-15 09:22:00,38.0,33.0,-100.00,NNW,328,2.0,4.0,82,0.00,,,-99.99,,2013-03-15 15:22:00,
2013-03-15 09:32:00,38.0,33.0,-100.00,NNW,328,2.0,4.0,82,0.00,,,-99.99,,2013-03-15 15:32:00,
2013-03-15 09:42:00,39.0,34.0,-100.00,West,271,1.0,3.0,81,0.00,,,-99.99,,2013-03-15 15:42:00,
2013-03-15 09:53:00,40.0,34.0,-100.00,SSW,203,1.0,2.0,79,0.00,,,-99.99,,2013-03-15 15:53:00,
2013-03-15 10:02:00,40.0,34.0,-100.00,SSW,203,1.0,2.0,79,0.00,,,-99.99,,2013-03-15 16:02:00,
2013-03-15 10:12:00,41.0,35.0,-100.00,WSW,257,1.0,2.0,77,0.00,,,-99.99,,2013-03-15 16:12:00,
2013-03-15 10:22:00,42.0,35.0,-100.00,WNW,292,0.0,1.0,75,0.00,,,-99.99,,2013-03-15 16:22:00,
2013-03-15 10:32:00,42.0,35.0,-100.00,WNW,292,0.0,1.0,75,0.00,,,-99.99,,2013-03-15 16:32:00,
2013-03-15 10:42:00,43.0,35.0,-100.00,West,274,0.0,1.0,73,0.00,,,-99.99,,2013-03-15 16:42:00,
2013-03-15 10:52:00,45.0,36.0,-100.00,NW,308,0.0,1.0,69,0.00,,,-99.99,,2013-03-15 16:52:00,
2013-03-15 11:01:00,45.0,36.0,-100.00,NW,308,0.0,1.0,69,0.00,,,-99.99,,2013-03-15 17:01:00,
2013-03-15 11:12:00,47.0,36.0,-100.00,WNW,292,1.0,2.0,66,0.00,,,-99.99,,2013-03-15 17:12:00,
2013-03-15 11:22:00,49.0,36.0,-100.00,North,359,1.0,2.0,62,0.00,,,-99.99,,2013-03-15 17:22:00,
2013-03-15 11:32:00,49.0,36.0,-100.00,North,359,1.0,2.0,62,0.00,,,-99.99,,2013-03-15 17:32:00,
2013-03-15 11:42:00,51.0,36.0,-100.00,NW,312,1.0,2.0,58,0.00,,,-99.99,,2013-03-15 17:42:00,
2013-03-15 11:52:00,52.0,36.0,-100.00,North,353,2.0,3.0,54,0.00,,,-99.99,,2013-03-15 17:52:00,
2013-03-15 12:02:00,52.0,36.0,-100.00,North,353,2.0,3.0,54,0.00,,,-99.99,,2013-03-15 18:02:00,
2013-03-15 12:12:00,53.0,37.0,-100.00,ESE,104,2.0,5.0,53,0.00,,,-99.99,,2013-03-15 18:12:00,
2013-03-15 12:32:00,54.0,37.0,-100.00,WSW,246,1.0,2.0,52,0.00,,,-99.99,,2013-03-15 18:32:00,
2013-03-15 12:42:00,55.0,36.0,-100.00,South,174,1.0,3.0,48,0.00,,,-99.99,,2013-03-15 18:42:00,
2013-03-15 12:52:00,56.0,39.0,-100.00,SSE,151,6.0,8.0,52,0.00,,,-99.99,,2013-03-15 18:52:00,
2013-03-15 13:02:00,56.0,39.0,-100.00,SSE,151,6.0,8.0,52,0.00,,,-99.99,,2013-03-15 19:02:00,
2013-03-15 13:12:00,56.0,39.0,-100.00,SSE,161,4.0,6.0,53,0.00,,,-99.99,,2013-03-15 19:12:00,
2013-03-15 13:22:00,56.0,39.0,-100.00,SSE,158,6.0,9.0,53,0.00,,,-99.99,,2013-03-15 19:22:00,
2013-03-15 13:31:00,56.0,39.0,-100.00,SSE,158,6.0,9.0,53,0.00,,,-99.99,,2013-03-15 19:31:00,
2013-03-15 13:42:00,55.0,39.0,-100.00,SSE,147,5.0,7.0,55,0.00,,,-99.99,,2013-03-15 19:42:00,
2013-03-15 13:52:00,55.0,38.0,-100.00,SSE,152,6.0,8.0,53,0.00,,,-99.99,,2013-03-15 19:52:00,
2013-03-15 14:02:00,55.0,38.0,-100.00,SSE,152,6.0,8.0,53,0.00,,,-99.99,,2013-03-15 20:02:00,
2013-03-15 14:12:00,55.0,39.0,-100.00,SSE,154,4.0,7.0,54,0.00,,,-99.99,,2013-03-15 20:12:00,
2013-03-15 14:22:00,56.0,39.0,-100.00,SSE,155,4.0,6.0,53,0.00,,,-99.99,,2013-03-15 20:22:00,
2013-03-15 14:31:00,56.0,39.0,-100.00,SSE,155,4.0,6.0,53,0.00,,,-99.99,,2013-03-15 20:31:00,
2013-03-15 14:42:00,56.0,39.0,-100.00,South,174,2.0,5.0,53,0.00,,,-99.99,,2013-03-15 20:42:00,
2013-03-15 14:52:00,56.0,38.0,-100.00,SSE,150,3.0,5.0,52,0.00,,,-99.99,,2013-03-15 20:52:00,
2013-03-15 15:02:00,56.0,38.0,-100.00,SSE,150,3.0,5.0,52,0.00,,,-99.99,,2013-03-15 21:02:00,
2013-03-15 15:12:00,56.0,37.0,-100.00,SSE,157,5.0,8.0,48,0.00,,,-99.99,,2013-03-15 21:12:00,
2013-03-15 15:22:00,55.0,36.0,-100.00,WNW,301,1.0,2.0,47,0.00,,,-99.99,,2013-03-15 21:22:00,
2013-03-15 15:32:00,55.0,36.0,-100.00,WNW,301,1.0,2.0,47,0.00,,,-99.99,,2013-03-15 21:32:00,
2013-03-15 15:42:00,57.0,36.0,-100.00,South,172,2.0,4.0,46,0.00,,,-99.99,,2013-03-15 21:42:00,
2013-03-15 15:52:00,57.0,36.0,-100.00,SW,217,2.0,6.0,45,0.00,,,-99.99,,2013-03-15 21:52:00,
2013-03-15 16:02:00,57.0,36.0,-100.00,SW,217,2.0,6.0,45,0.00,,,-99.99,,2013-03-15 22:02:00,
2013-03-15 16:12:00,58.0,36.0,-100.00,North,3,2.0,3.0,44,0.00,,,-99.99,,2013-03-15 22:12:00,
2013-03-15 16:22:00,57.0,35.0,-100.00,WNW,301,1.0,3.0,43,0.00,,,-99.99,,2013-03-15 22:22:00,
2013-03-15 16:32:00,57.0,35.0,-100.00,WNW,301,1.0,3.0,43,0.00,,,-99.99,,2013-03-15 22:32:00,
2013-03-15 16:42:00,56.0,34.0,-100.00,NW,308,2.0,3.0,43,0.00,,,-99.99,,2013-03-15 22:42:00,
2013-03-15 16:52:00,56.0,33.0,-100.00,WNW,284,1.0,2.0,42,0.00,,,-99.99,,2013-03-15 22:52:00,
2013-03-15 17:02:00,56.0,33.0,-100.00,WNW,284,1.0,2.0,42,0.00,,,-99.99,,2013-03-15 23:02:00,
2013-03-15 17:12:00,57.0,33.0,-100.00,WNW,292,1.0,2.0,39,0.00,,,-99.99,,2013-03-15 23:12:00,
2013-03-15 17:22:00,57.0,32.0,-100.00,NW,313,1.0,2.0,38,0.00,,,-99.99,,2013-03-15 23:22:00,
2013-03-15 17:32:00,57.0,32.0,-100.00,NW,313,1.0,2.0,38,0.00,,,-99.99,,2013-03-15 23:32:00,
2013-03-15 17:42:00,57.0,30.0,-100.00,WNW,292,0.0,1.0,35,0.00,,,-99.99,,2013-03-15 23:42:00,
2013-03-15 17:53:00,55.0,33.0,-100.00,WNW,299,2.0,3.0,43,0.00,,,-99.99,,2013-03-15 23:53:00,
2013-03-15 18:02:00,55.0,33.0,-100.00,WNW,299,2.0,3.0,43,0.00,,,-99.99,,2013-03-16 00:02:00,
2013-03-15 18:12:00,56.0,29.0,-100.00,WNW,301,5.0,7.0,36,0.00,,,-99.99,,2013-03-16 00:12:00,
2013-03-15 18:22:00,55.0,31.0,-100.00,NW,309,5.0,6.0,39,0.00,,,-99.99,,2013-03-16 00:22:00,
2013-03-15 18:32:00,55.0,31.0,-100.00,NW,309,5.0,6.0,39,0.00,,,-99.99,,2013-03-16 00:32:00,
2013-03-15 18:42:00,55.0,31.0,-100.00,WNW,294,3.0,5.0,40,0.00,,,-99.99,,2013-03-16 00:42:00,
2013-03-15 18:52:00,55.0,33.0,-100.00,NW,313,2.0,3.0,44,0.00,,,-99.99,,2013-03-16 00:52:00,
2013-03-15 19:02:00,55.0,33.0,-100.00,NW,313,2.0,3.0,44,0.00,,,-99.99,,2013-03-16 01:02:00,
2013-03-15 19:12:00,54.0,34.0,-100.00,WNW,298,1.0,2.0,47,0.00,,,-99.99,,2013-03-16 01:12:00,
2013-03-15 19:21:00,53.0,34.0,-100.00,SSW,202,0.0,1.0,47,0.00,,,-99.99,,2013-03-16 01:21:00,
2013-03-15 19:32:00,53.0,34.0,-100.00,SSW,202,0.0,1.0,47,0.00,,,-99.99,,2013-03-16 01:32:00,
2013-03-15 19:42:00,53.0,36.0,-100.00,South,174,1.0,2.0,52,0.00,,,-99.99,,2013-03-16 01:42:00,
2013-03-15 19:52:00,51.0,36.0,-100.00,SE,126,2.0,3.0,58,0.00,,,-99.99,,2013-03-16 01:52:00,
2013-03-15 20:02:00,51.0,36.0,-100.00,SE,126,2.0,3.0,58,0.00,,,-99.99,,2013-03-16 02:02:00,
2013-03-15 20:12:00,48.0,35.0,-100.00,North,354,0.0,1.0,60,0.00,,,-99.99,,2013-03-16 02:12:00,
2013-03-15 20:22:00,47.0,35.0,-100.00,WSW,239,0.0,0.0,63,0.00,,,-99.99,,2013-03-16 02:22:00,
2013-03-15 20:32:00,47.0,35.0,-100.00,WSW,239,0.0,0.0,63,0.00,,,-99.99,,2013-03-16 02:32:00,
2013-03-15 20:42:00,46.0,36.0,-100.00,East,89,1.0,2.0,66,0.00,,,-99.99,,2013-03-16 02:42:00,
2013-03-15 20:52:00,45.0,35.0,-100.00,SE,131,1.0,1.0,66,0.00,,,-99.99,,2013-03-16 02:52:00,
2013-03-15 21:02:00,45.0,35.0,-100.00,SE,131,1.0,1.0,66,0.00,,,-99.99,,2013-03-16 03:02:00,
2013-03-15 21:11:00,45.0,34.0,-100.00,WSW,244,0.0,1.0,65,0.00,,,-99.99,,2013-03-16 03:11:00,
2013-03-15 21:21:00,44.0,34.0,-100.00,South,188,1.0,3.0,68,0.00,,,-99.99,,2013-03-16 03:21:00,
2013-03-15 21:32:00,44.0,34.0,-100.00,South,188,1.0,3.0,68,0.00,,,-99.99,,2013-03-16 03:32:00,
2013-03-15 21:42:00,43.0,34.0,-100.00,WSW,256,0.0,1.0,69,0.00,,,-99.99,,2013-03-16 03:42:00,
2013-03-15 21:53:00,43.0,34.0,-100.00,SSE,164,0.0,1.0,70,0.00,,,-99.99,,2013-03-16 03:53:00,
2013-03-15 22:02:00,43.0,34.0,-100.00,SSE,164,0.0,1.0,70,0.00,,,-99.99,,2013-03-16 04:02:00,
2013-03-15 22:12:00,43.0,33.0,-100.00,SW,220,0.0,1.0,70,0.00,,,-99.99,,2013-03-16 04:12:00,
2013-03-15 22:22:00,42.0,33.0,-100.00,SSW,208,0.0,1.0,71,0.00,,,-99.99,,2013-03-16 04:22:00,
2013-03-15 22:32:00,42.0,33.0,-100.00,SSW,208,0.0,1.0,71,0.00,,,-99.99,,2013-03-16 04:32:00,
2013-03-15 22:42:00,42.0,33.0,-100.00,SW,230,0.0,1.0,69,0.00,,,-99.99,,2013-03-16 04:42:00,
2013-03-15 22:53:00,42.0,33.0,-100.00,SW,223,0.0,1.0,70,0.00,,,-99.99,,2013-03-16 04:53:00,
2013-03-15 23:02:00,42.0,33.0,-100.00,SW,223,0.0,1.0,70,0.00,,,-99.99,,2013-03-16 05:02:00,
2013-03-15 23:12:00,42.0,33.0,-100.00,SW,217,1.0,1.0,70,0.00,,,-99.99,,2013-03-16 05:12:00,
2013-03-15 23:21:00,41.0,33.0,-100.00,SW,220,0.0,1.0,71,0.00,,,-99.99,,2013-03-16 05:21:00,
2013-03-15 23:32:00,41.0,33.0,-100.00,SW,220,0.0,1.0,71,0.00,,,-99.99,,2013-03-16 05:32:00,
2013-03-15 23:42:00,41.0,33.0,-100.00,South,172,2.0,3.0,72,0.00,,,-99.99,,2013-03-16 05:42:00,
2013-03-15 23:52:00,41.0,33.0,-100.00,SSW,196,0.0,1.0,72,0.00,,,-99.99,,2013-03-16 05:52:00,